DAX®15.199,68+0,33%TecDAX®3.284,58+0,68%Dow Jones 3034.021,45+1,29%Nasdaq 10013.109,15+0,83%
finanztreff.de

S&P 500 Indikation (Citi)

4.111,17 PKT +1,12%
WKN:-- ISIN:-- Symbol:-- Gattung:Index Land:Deutschland
Zeit: 13.05.21 Citigroup

Werbung

Indexzusammensetzung - S&P 500

Der S&P 500 Standard & Poor’s 500 umfasst 500 der größten Unternehmen der USA. Der bekannteste Index ist der Kursindex. Es gibt aber auch noch den S&P 500 Total Return und den S&P 500 Net Total Return. Der S&P 500 wird von der Standard and Poor’s Corporation herausgegeben.

Einträge in der aktuellen Ansicht filtern: Filter löschen
WKNBezeichnungBrancheKursZeit%+/-UmsatzVolumenTradesBörseInfo
A0AET0 S&P 500 - -- -- --% -- 0 0 0 ISP
851745 3M Company Mischkonz. 203,41 03:00 +2,28% +4,54 0 1,7Mio 5.498 NYSE
850103 Abbott Laboratories Pharma 117,45 03:01 +0,95% +1,10 0 4,5Mio 18.519 NYSE
A1J84E AbbVie Incorporated Pharma 116,60 03:00 +1,43% +1,64 0 6,6Mio 25.965 NYSE
873886 Abiomed Incorporated Biotech 262,71 13.05. -3,50% -9,54 0 533,6Tsd 2.605 NAS
A0YAQA Accenture plc Dienstlstg. 285,32 03:01 +2,12% +5,93 0 1,7Mio 6.806 NYSE
A0Q4K4 Activision Blizzard Software 93,42 13.05. +0,82% +0,76 0 4,7Mio 18.091 NAS
871981 Adobe Systems Software 474,16 13.05. +0,44% +2,07 0 2,0Mio 6.151 NAS
982516 Advance Auto Parts Automobile 204,50 03:01 +1,34% +2,71 0 479,3Tsd 1.920 NYSE
863186 AMD - Advanced Micro Devices Halbleiter 73,09 13.05. -2,08% -1,55 0 48,6Mio 185.000 NAS
882177 AES Corporation Technolog. 24,44 03:01 -0,73% -0,18 0 5,3Mio 22.599 NYSE
853081 Aflac Inc. Versicherer 55,50 03:01 +1,93% +1,05 0 3,0Mio 14.190 NYSE
929138 Agilent Technologies Technolog. 130,02 03:00 +1,07% +1,38 0 805,9Tsd 3.190 NYSE
854912 Air Products and Chemicals Chemie 299,78 03:01 +2,26% +6,62 0 850,7Tsd 3.551 NYSE
928906 Akamai Technologies Internet 111,04 13.05. -0,23% -0,26 0 1,2Mio 5.018 NAS
869843 Alaska Air Group Transport 67,16 03:01 +3,69% +2,39 0 1,6Mio 6.663 NYSE
890167 Albemarle Corporation Chemie 157,69 03:01 +2,00% +3,09 0 683,2Tsd 2.606 NYSE
907179 Alexandria Real Estate Equities Immobilien 172,78 03:01 +0,16% +0,28 0 675,4Tsd 2.585 NYSE
899527 Alexion Pharmaceuticals Inc. Pharma 173,33 13.05. +0,78% +1,34 0 1,3Mio 5.807 NAS
590375 Align Technology Inc. Pharma 553,62 13.05. +0,91% +4,98 0 421,1Tsd 1.359 NAS
A1W869 Allegion plc - 139,21 03:01 +2,82% +3,82 0 660,2Tsd 2.127 NYSE
855870 Alliant Energy Energie 56,88 13.05. +1,92% +1,07 0 978,9Tsd 4.217 NAS
886429 Allstate Corporation Versicherer 137,52 03:01 +3,59% +4,77 0 2,2Mio 10.318 NYSE
A14Y6F Alphabet Inc. A Internet 2.229,04 13.05. +1,31% +28,79 0 1,7Mio 4.046 NAS
A14Y6H Alphabet Inc. C Internet 2.261,97 13.05. +1,02% +22,89 0 1,3Mio 3.604 NAS
200417 Altria Group Inc. Mischkonz. 50,12 03:00 +1,56% +0,77 0 7,4Mio 30.351 NYSE
906866 Amazon Handel 3.161,47 13.05. +0,30% +9,53 0 3,4Mio 8.018 NAS
A2PKFL Amcor plc - 12,38 03:02 +1,89% +0,23 0 7,1Mio 26.751 NYSE
911535 Ameren Corporation Versorger 83,51 03:01 +1,31% +1,08 0 959,4Tsd 4.431 NYSE
A1W97M American Airlines Group Inc. Transport 21,21 13.05. +2,17% +0,45 0 35,2Mio 92.008 NAS
850222 American Electric Power Compan Versorger 86,52 13.05. +1,81% +1,54 0 3,0Mio 9.516 NAS
850226 American Express Finanzen 154,08 03:01 +1,17% +1,78 0 2,3Mio 8.820 NYSE
A0X88Z AIG - American International Versicherer 50,85 03:01 +1,54% +0,77 0 5,1Mio 20.146 NYSE
A1JRLA American Tower REIT Corporation Telekomm. 244,00 03:01 +0,84% +2,04 0 1,5Mio 4.848 NYSE
A0NJ38 American Water Works Inc. Versorger 152,00 03:01 +1,61% +2,41 0 560,7Tsd 2.505 NYSE
A0F55S Ameriprise Financial Finanzen 253,92 03:01 +1,23% +3,08 0 664,4Tsd 2.652 NYSE
766149 AmerisourceBergen Pharma 119,46 03:01 -0,52% -0,63 0 1,1Mio 5.118 NYSE
908668 AMETEK Incorporated Technolog. 133,42 03:01 +1,97% +2,58 0 856,4Tsd 3.600 NYSE
867900 Amgen Inc. Biotech 252,07 13.05. +0,49% +1,24 0 3,3Mio 10.762 NAS
882749 Amphenol Corporation Technolog. 65,30 03:01 +1,76% +1,13 0 2,0Mio 9.550 NYSE
862485 Analog Devices Inc. Halbleiter 146,63 13.05. +0,40% +0,58 0 4,1Mio 15.369 NAS
901492 Ansys Inc. Software 317,67 13.05. -0,90% -2,89 0 422,2Tsd 1.505 NAS
A12FMV Anthem Incorporated Pharma 395,45 03:00 +1,35% +5,28 0 1,0Mio 2.899 NYSE
A2P2JR Aon plc Versicherer 252,00 03:01 +0,91% +2,28 0 1,4Mio 6.126 NYSE
A2QQVE Apache Corporation Energie 20,40 13.05. -3,45% -0,73 0 6,9Mio 28.655 NAS
865985 Apple Inc. Technolog. 124,97 13.05. +1,79% +2,20 0 105,9Mio 368.656 NAS
865177 Applied Materials Halbleiter 119,92 13.05. +4,39% +5,04 0 14,2Mio 58.992 NAS
A1JPLB Aptiv plc Automobile 136,93 03:00 +1,91% +2,56 0 1,4Mio 7.089 NYSE
854161 ADM - Archer Daniels Midland Nahrung 67,14 03:01 +0,96% +0,64 0 2,7Mio 10.570 NYSE
A11099 Arista Networks Inc. - 317,88 03:00 +0,67% +2,11 0 415,2Tsd 1.924 NYSE
869761 Arthur J. Gallagher & Co. Versicherer 145,86 03:01 +1,39% +2,00 0 5,2Mio 27.220 NYSE
A0BLRP Assurant Inc. Versicherer 159,30 03:01 +1,90% +2,97 0 225,2Tsd 980 NYSE
A0HL9Z AT&T Inc. Telekomm. 32,21 03:00 +0,75% +0,24 0 27,1Mio 67.002 NYSE
868746 Atmos Energy Corporation Versorger 100,61 03:01 +1,37% +1,36 0 549,6Tsd 2.168 NYSE
869964 Autodesk Software 269,72 13.05. +0,07% +0,18 0 1,3Mio 4.601 NAS
850347 Automatic Data Processing Technolog. 192,52 13.05. +1,63% +3,08 0 1,4Mio 4.867 NAS
881531 AutoZone Inc. Handel 1.533,76 03:01 +2,53% +37,88 0 180,9Tsd 451 NYSE
914867 AvalonBay Communities Finanzen 196,50 03:01 +1,90% +3,66 0 842,9Tsd 3.425 NYSE
850354 Avery Dennison Konsum 220,44 03:01 +2,55% +5,49 0 443,4Tsd 2.264 NYSE
A2DUAY Baker Hughes Corporation Energie 24,35 03:01 +1,59% +0,38 0 13,2Mio 55.711 NYSE
860408 Ball Corporation Industrie 88,46 03:01 +0,72% +0,63 0 1,2Mio 5.023 NYSE
858388 Bank of America Corporation Banken 41,84 03:01 +1,60% +0,66 0 42,0Mio 106.714 NYSE
A0MVKA Bank of New York Mellon Banken 51,69 03:00 +1,29% +0,66 0 4,7Mio 21.942 NYSE
853815 Baxter International Pharma 83,40 03:01 +0,36% +0,30 0 3,0Mio 14.302 NYSE
857675 Becton, Dickinson and Company Pharma 244,08 03:01 +1,01% +2,44 0 1,8Mio 6.428 NYSE
A0YJQ2 Berkshire Hathaway Inc. B Mischkonz. 286,90 03:01 +1,41% +3,99 0 5,2Mio 18.135 NYSE
873629 Best Buy Corporation Handel 119,00 03:01 +2,45% +2,85 0 1,7Mio 6.879 NYSE
865406 Bio-Rad Laboratories Inc. A Biotech 590,97 03:01 +1,21% +7,08 0 101,1Tsd 256 NYSE
789617 Biogen Inc. Pharma 281,71 13.05. +2,81% +7,69 0 1,0Mio 4.009 NAS
928193 BlackRock Inc. A Finanzen 838,99 03:01 +1,88% +15,49 0 554,7Tsd 1.558 NYSE
850471 The Boeing Company Industrie 222,64 03:00 +0,84% +1,86 0 16,5Mio 60.376 NYSE
A2JEXP Booking Holdings Inc. Technolog. 2.207,27 13.05. +1,61% +35,02 0 299,6Tsd 925 NAS
887320 BorgWarner Automotive Automobile 50,75 03:01 +2,01% +1,00 0 1,5Mio 6.107 NYSE
907550 Boston Properties Immobilien 106,01 03:01 +2,12% +2,20 0 1,2Mio 5.557 NYSE
884113 Boston Scientific Pharma 41,61 03:01 +0,63% +0,26 0 5,0Mio 20.863 NYSE
850501 BMS - Bristol Myers Squib Pharma 65,04 03:01 +0,79% +0,51 0 8,6Mio 37.261 NYSE
A2JG9Z Broadcom Inc. Sonstige 430,60 13.05. +1,95% +8,22 0 2,2Mio 6.590 NAS
A0MMP1 Broadridge Financial Solutions Finanzen 160,97 03:00 +1,23% +1,95 0 354,5Tsd 1.389 NYSE
856693 Brown-Forman Nahrung 77,48 03:00 +1,72% +1,31 0 584,9Tsd 2.551 NYSE
A0HGF5 C.H. Robinson Transport 99,21 13.05. +2,12% +2,06 0 669,0Tsd 3.123 NAS
881646 Cabot Oil & Gas A Energie 17,19 03:01 -1,77% -0,31 0 4,9Mio 21.887 NYSE
873567 Cadence Design Systems Technolog. 122,07 13.05. +0,24% +0,29 0 1,7Mio 5.510 NAS
A2P92E Caesars Entertainment Inc. - 94,37 13.05. +2,12% +1,96 0 4,0Mio 18.863 NAS
850561 Campbell Soup Company Nahrung 49,56 03:01 +0,73% +0,36 0 1,9Mio 9.502 NYSE
893413 Capital One Financial Finanzen 156,29 03:01 +2,17% +3,32 0 3,0Mio 13.917 NYSE
880206 Cardinal Health Inc. Handel 56,10 03:01 +0,52% +0,29 0 2,6Mio 11.576 NYSE
662604 CarMax Inc. Technolog. 121,11 03:00 +2,57% +3,04 0 1,3Mio 6.207 NYSE
120100 Carnival Corporation DLC Dienstlstg. 25,12 03:01 +1,37% +0,34 0 28,2Mio 86.748 NYSE
A2P1UY Carrier Global Corporation - 43,25 03:00 +1,93% +0,82 0 5,1Mio 24.915 NYSE
A112H2 Catalent Inc. - 100,48 03:00 -0,99% -1,00 0 1,1Mio 4.694 NYSE
850598 Caterpillar Inc. Maschinenb. 240,07 03:01 +1,16% +2,75 0 2,2Mio 7.937 NYSE
A1CZTX Cboe Global Markets Inc. Finanzen 113,66 03:00 +2,25% +2,50 0 828,0Tsd 4.248 NYSE
A1JLYH CBRE Group Immobilien 86,38 03:00 +2,37% +2,00 0 1,6Mio 7.635 NYSE
A1W0KL CDW Corporation - 168,53 13.05. +3,09% +5,05 0 1,2Mio 4.484 NAS
A0DP2A Celanese Corporation Chemie 166,65 03:00 +2,24% +3,65 0 603,4Tsd 2.924 NYSE
766458 Centene Corporation Pharma 68,39 03:01 -1,79% -1,25 0 5,5Mio 25.099 NYSE
854566 CenterPoint Energy Versorger 24,47 03:01 +3,47% +0,82 0 9,5Mio 21.387 NYSE
892807 Cerner Corporation Dienstlstg. 76,87 13.05. +0,73% +0,56 0 2,4Mio 9.283 NAS
A0ES9N CF Industries Holdings Chemie 53,57 03:00 -0,67% -0,36 0 2,0Mio 8.307 NYSE
874171 Charles Schwab Banken 70,43 03:00 +1,90% +1,31 0 6,3Mio 28.155 NYSE
A2AJX9 Charter Communications Inc. A Medien 685,30 13.05. +0,49% +3,32 0 839,9Tsd 3.306 NAS
Seite: 12345

Tops & Flops - S&P 500 Indikation (Citi)

Tops Branche Kurs Bid Ask +/- % Zeit Chart
GS - Goldman Sachs Inc. Banken 296,80 296,40 298,00 +21,62 +7,86% 13.05.
Home Depot Handel 268,80 269,40 270,80 -4,68 -1,71% 13.05.
Marsh & McLennan Companies Finanzen 111,00 112,00 115,00 +5,95 +5,66% 13.05.
Tesla Incorporated Automobile 471,40 470,45 472,85 -101,79 -17,76% 13.05.
Honeywell International Inc. Mischkonz. 181,32 183,32 185,54 -4,36 -2,35% 13.05.
Flops
Penn National Gaming Konsum 62,82 62,58 63,85 -20,98 -25,04% 12.05.
Etsy Incorporated 129,38 129,52 130,20 -50,42 -28,04% 13.05.
Twitter Incorporated Medien 41,49 41,46 41,67 -17,19 -29,29% 13.05.
Regency Realty Co. Immobilien 49,40 51,50 53,00 +3,73 +8,16% 06.04.
Alphabet Inc. A Internet 1.850,00 1.839,40 1.848,80 -65,93 -3,44% 13.05.
Werbung

Werbung
Diese Seite empfehlenschliessen
Interessant, oder?
Teilen Sie diese Seite auf Facebook oder Twitter
Wenn Sie auf die Teilen-Buttons klicken und sich bei den Betreibern einloggen, werden Daten an den jeweiligen Betreiber übermittelt. Bitte beachten Sie die Datenschutzerklärung.
Aktuelle Umfrageschliessen
Rund zwei Jahre nach dem Verkauf seines Deutschland-Geschäfts will der Online-Lieferdienst Delivery Hero mit der Marke Foodpanda hierzulande wieder Fuß fassen. Glauben Sie, dass Foodpanda in Deutschland erfolgreich wird?
Jetzt abstimmen!
Alle Umfragen ansehen